Flag for Guadeloupe Weather past 2 weeks in Pointe-à-Pitre, Guadeloupe

Now
79 °F

Scattered clouds.


Feels Like: 81 °F
Forecast: N/A
Wind: 7 mph from Southeast

Location: Le Raizet - Guadeloupe

Current Time: Jan 31, 2015 at 6:40:52 PM

Latest Report: Jan 31, 2015 at 6:00 PM


Visibility: N/A

Pressure: 29.95 "Hg

Humidity: 70%

Dew point: 68 °F

Location of Pointe-à-PitreLocation

Historic Weather in Pointe-à-Pitre — Graph

°F

Pointe-à-Pitre temperature yesterday

Maximum temperature yesterday: 86 °F (at 2:00 PM)
Minimum temperature yesterday: 66 °F (at 3:00 AM)
Average temperature yesterday: 75 °F

Past Weeks' High & Low Weather Summary

 TemperatureHumidityPressure
High86 °F (Jan 22, 12:00 PM)100% (Jan 17, 4:30 AM)30.07 "Hg (Jan 17, 4:30 AM)
Low66 °F (Jan 20, 4:30 AM)43% (Jan 25, 2:00 PM)29.92 "Hg (Jan 19, 2:30 PM)
Average77 °F75%29.98 "Hg
* Reported Jan 16 5:00 PM — Jan 31 5:30 PM, Pointe-à-Pitre, Weather by CustomWeather, © 2014

Note: Actual official high and low records may vary slightly from our data, if they occured in-between our weather recording intervals... More about our weather records

Advertising

Pointe-à-Pitre weather history for previous 24 hours

 ConditionsComfort  
Time TempWeatherWind HumidityBarometerVisibility
5:30 PM
Jan 31
81 °FScattered clouds.3 mph66%29.95 "HgN/A
4:30 PM79 °FPartly sunny.5 mph70%29.95 "HgN/A
4:00 PM79 °FPartly sunny.6 mph70%29.95 "HgN/A
3:39 PM81 °FPartly sunny.3 mph66%29.95 "HgN/A
3:08 PM81 °FPartly sunny.9 mph66%29.95 "HgN/A
2:34 PM84 °FPartly sunny.10 mph58%29.95 "HgN/A
2:00 PM84 °FPartly sunny.3 mph58%29.98 "HgN/A
1:30 PM84 °FPartly sunny.5 mph58%29.98 "HgN/A
1:00 PM84 °FPartly sunny.8 mph58%29.98 "HgN/A
12:30 PM86 °FPartly sunny.12 mph55%29.98 "HgN/A
12:00 PM86 °FPartly sunny.9 mph59%29.98 "HgN/A
11:30 AM84 °FPartly sunny.8 mph58%30.01 "HgN/A
11:00 AM84 °FPartly sunny.1 mph58%30.01 "HgN/A
10:30 AM82 °FPartly sunny.3 mph62%30.01 "HgN/A
10:00 AM82 °FPartly sunny.5 mph62%30.01 "HgN/A
9:30 AM79 °FScattered clouds.3 mph70%30.04 "HgN/A
9:00 AM79 °FPassing clouds.No wind70%30.01 "HgN/A
8:30 AM75 °FPassing clouds.No wind78%30.01 "HgN/A
8:05 AM73 °FPassing clouds.No wind89%30.01 "HgN/A
7:34 AM72 °FPassing clouds.No wind94%29.98 "HgN/A
7:00 AM66 °FClear.2 mph100%29.98 "HgN/A
6:30 AM66 °FClear.2 mph94%29.98 "HgN/A
6:00 AM66 °FClear.2 mph94%29.95 "HgN/A
5:30 AM66 °FClear.No wind94%29.95 "HgN/A
5:00 AM66 °FClear.2 mph100%29.95 "HgN/A
4:30 AM66 °FClear.2 mph94%29.95 "HgN/A
4:00 AM66 °FClear.2 mph94%29.95 "HgN/A
3:30 AM66 °FClear.No wind94%29.95 "HgN/A
3:00 AM68 °FClear.No wind94%29.95 "HgN/A
2:30 AM68 °FClear.No wind94%29.95 "HgN/A
2:00 AM68 °FClear.No wind94%29.95 "HgN/A
1:30 AM70 °FClear.No wind88%29.95 "HgN/A
1:00 AM70 °FClear.1 mph88%29.95 "HgN/A
12:30 AM70 °FClear.No wind88%29.98 "HgN/A
12:00 AM70 °FClear.No wind88%29.98 "HgN/A
11:00 PM
Jan 30
72 °FClear.No wind83%29.98 "HgN/A
10:30 PM72 °FClear.No wind83%29.98 "HgN/A
10:00 PM73 °FClear.2 mph83%29.98 "HgN/A
9:30 PM73 °FClear.3 mph83%29.98 "HgN/A
9:00 PM73 °FClear.6 mph83%29.98 "HgN/A
8:30 PM73 °FPassing clouds.2 mph83%29.98 "HgN/A
8:00 PM75 °FPassing clouds.2 mph78%29.98 "HgN/A
7:30 PM77 °FClear.3 mph74%29.95 "HgN/A
7:00 PM77 °FPassing clouds.5 mph74%29.95 "HgN/A
6:30 PM77 °FPassing clouds.6 mph74%29.95 "HgN/A
6:00 PM79 °FScattered clouds.8 mph70%29.95 "HgN/A
Weather by CustomWeather, © 2014

See weather overviewHow to use our weather pages